Résultats de la compétition "Régionale n°1 IdF Orry la ville 20/09/2009 " du 20-09-2009 organisée par le comité départemental du 95 - Val-d'Oise
     
  Télécharger le fichier CSV.  
     
     

 Circuit "Circuit A"

Licence Nom Prénom Temps CN
précédent
Score sur
la course
Différence
8237RAIMBAULTJuste0:55:3873176076-1241
4768RICARDGael0:55:4558536063+210
17648DUBURQUOISErwan0:56:0356086031+423
1974DELAUMEJ-Marc0:57:3450505872+822
7856BOUDETPierre0:59:2560715689-382
10757MARTELFranck1:00:4061275572-555
9601BESTELThierry1:00:5457035551-152
12114PANNIERPascal1:01:4961265468-658
12934THOMASJohann1:03:4161205308-812
1983HALLAYFranck1:04:44N/A5222N/A
10268NOREVincent1:05:4247575145+388
19020DUFRESNEFabien1:05:4744135138+725
8823LEGUENOlivier1:06:0156335120-513
19101MACLEBruno1:06:1151415107-34
16261TERRIENSébastien1:08:0553074965-342
130BERARDJ-Philippe1:11:0543454755+410
11475GODEFROYBruno1:11:2754064731-675
4428VERMEERSCHThierry1:13:2146824608-74
20013EMOSylvain1:14:0438524564+712
21159WOUTERSDenis1:14:09N/A4559N/A
1982HALLAYDominique1:22:0343174120-197
13677RISSELINNicolas1:23:3032644048+784
2072GRANIERDamien1:24:3948503993-857
18211BLOTGregory1:25:5936763931+255
20779MEHEUTGuillaume1:31:18N/A3702N/A
6502WOLOCHYannis1:31:31N/A3694N/A
20350DARLONBenoît1:32:09N/A3668N/A
22155GABRIELOlivier1:36:49N/A3491N/A
19558ROCHStephane1:37:4339753459-516
20769GISOAnthony1:41:34N/A3328N/A
8990GUESDONMaxime1:42:3440973296-801
20920COUDELionel1:55:00N/A2939N/A
14645BOYETChristophe1:58:4928692845-24

  Indice de confiance du circuit (moyenne des différences entre CN et score sur la course des 3 à 10 premiers) : 360




 Circuit "Circuit B"

Licence Nom Prénom Temps CN
précédent
Score sur
la course
Différence
6117LESAULTPhilippe0:47:5258846095+211
2252GROSHENSDidier0:50:3259785774-204
3201RAUTURIERChristophe0:51:1756865689+3
2120VANNIEREric0:51:2360995678-421
1365LEJEUNEBruno0:51:4657025636-66
10755L'HERITIERJean-Philippe0:53:2860045457-547
2448SPAETHDaniel0:53:5350205415+395
3742JOURDATOlivier0:58:0146645029+365
1978GASNOTLaurent0:58:4856024962-640
16776SANCHEZPhilippe0:59:1449424926-16
4181RAUTURIERBenoit1:00:3652104814-396
15898POUGHEONPierre1:00:41N/A4808N/A
12350PRUNIERJ-Marc1:00:5941884784+596
2221BEAUVISAGEChristoph1:03:1147734618-155
13318BODARDStephan1:03:45N/A4577N/A
14688CARUELFrancois1:04:4742784504+226
4357ROULLEAUXAlain1:05:1646184470-148
7902PORTRONAlain1:06:2842074390+183
16119SENTAGNEFrancois1:06:4447024372-330
2142NAELPascal1:06:5146494364-285
7702RORAJose1:09:1950664209-857
20377CADARTYoann1:10:0833034160+857
8445FINASCeline1:12:0649404047-893
11709ROMIEUCyril1:13:17N/A3981N/A
8889GARNIERVincent1:13:5847123944-768
7901PORTRONFrederic1:17:1435343778+244
13245POYARDJ-Claude1:19:2737633672-91
12241VIONLudovic1:20:4038193617-202
15253DELAVEAUPatrice1:20:5933173603+286
12846LHERMITTEFrederic1:21:3837373574-163
15232ROGERVincent1:22:1530503547+497
11997DELEIRISFlorian1:32:0340283170-858
21184MUGICAYvan1:34:52N/A3075N/A
11302CARRIELaurent1:36:0829143035+121
884GARDEURJulien1:36:4036143018-596
1977FISCHERFrederic1:42:4340942840-1254
20280MACAIREPaul1:43:0132302832-398
19097COUSSEMENTNicolas1:46:49N/A2731N/A
20982CHENOTFranck1:55:41N/A2522N/A
14240FUCHSSylvain2:01:5729162392-524
20615REVERCHONLoïc2:05:08N/A2332N/A
20431WANNAVONGHZManyrath2:12:4328572198-659
20392JOUFFRAISStéphane2:46:2527841753-1031
15195THORELBrunoN/A30620-3062
8548CLOUARDFredericN/A45520-4552

  Indice de confiance du circuit (moyenne des différences entre CN et score sur la course des 3 à 10 premiers) : 106




 Circuit "Circuit C"

Licence Nom Prénom Temps CN
précédent
Score sur
la course
Différence
13391ROGERAlexandre0:50:2145555457+902
1971CHARRIERDaniel0:53:0050125184+172
10361COXAnthony0:53:0551285176+48
8593KLEINPierre0:53:5441705098+928
4182RAUTURIERMaxime0:54:0747155077+362
8567BARDESPhilippe0:55:0956704982-688
16117TARDYLaetitia0:55:2451514960-191
12226PINAUDMichel0:58:1641744716+542
890GODEFROYRene0:59:0249174655-262
4183RAUTURIERCamille0:59:3160134617-1396
14302CAMPBELLNick0:59:3947714606-165
12515VUILLAUMEBertrand0:59:4748524596-256
897HAMONMatthieu1:01:0738854496+611
13414RIOYannick1:02:54N/A4368N/A
20836STRAKALukas1:03:0441444357+213
1398HERMETAndre1:03:3943174317+0
14648DIDOUSophie1:07:3454334067-1366
4592ANTOINE-DELAUMESophie1:07:4843404053-287
14800DAMBRINEFabrice1:10:3936133889+276
14900PRESSONBernard1:10:5134893878+389
1514CHARLESThierry1:12:5341193770-349
17309BESTELFlorence1:13:3232273737+510
16588BESCHFrederic1:13:5247573720-1037
13174BARDURYEmile1:13:5336353719+84
22293MARTINFulgencio1:15:30N/A3639N/A
18061TCHENGSophie1:20:2227773419+642
9126NOYEyal1:21:4334273363-64
20384DUTERAGEChristian1:22:23N/A3335N/A
1929CHINCHOLEPaul1:23:3229873289+302
3199NEPIBruno1:23:5828663272+406
18056ADOLPHEPhilippe1:25:2428663218+352
2160ARLANDISJ-Christoph1:25:2829963215+219
19215PASSELERGUEMarianne1:27:5932863123-163
10812DRUZETICStephane1:29:2231413075-66
19570TOULEMONDEBruno1:35:5123212867+546
2135COMBATBruno1:42:2627782682-96
20393GUIOTDominique2:01:2622242263+39
10809GUERINFranckN/AN/A0N/A
4581KARPYNChristianN/A28490-2849
13031DELVALGillesN/A25690-2569

  Indice de confiance du circuit (moyenne des différences entre CN et score sur la course des 3 à 10 premiers) : 229




 Circuit "Circuit D"

Licence Nom Prénom Temps CN
précédent
Score sur
la course
Différence
10451RAIMBAULTPhilippe0:36:3148265062+236
4879RAUTURIERQuentin0:39:1637774708+931
11307BEAUVISAGELauriane0:39:2743544686+332
17406CAMPBELLJane0:46:4541623954-208
2146HAMONPatrick0:47:2344083901-507
886GIRECamille0:48:2241243822-302
8551CLOUARDLucile0:48:4541373792-345
2119VANNIERBernard0:50:3946173650-967
22292MARTINSylvie0:52:25N/A3527N/A
8890BARSANTIPatricia0:53:1437773472-305
13744PAULETGuillaume0:55:4641803315-865
20418PIGEOTSylvie0:56:19N/A3282N/A
13351DRUZETICCecilia0:57:49N/A3197N/A
7703RORAIsabelle0:58:2036333169-464
22073WALLONJulien1:02:52N/A2940N/A
21021ROLLINRomain1:04:06N/A2884N/A
22223GUBLINPerrine1:04:53N/A2849N/A
1379CRENNChristian1:06:2929802780-200
3600LAZAROWICZRichard1:07:0829352753-182
1984HALLAYJ-Pierre1:12:4433322541-791
22280POLARDMarie1:15:06N/A2461N/A
4191GARROSOlivier1:20:0126342310-324
20837STRAKOVAJana1:26:06N/A2147N/A
19571TOULEMONDEAgnès1:32:1718562003+147
5627STRULLUFrederic1:43:5628821779-1103
15698EUDIERCeline1:48:59N/A1696N/A
19098COUSSEMENTCécileN/AN/A0N/A

  Indice de confiance du circuit (moyenne des différences entre CN et score sur la course des 3 à 10 premiers) : 295




 Circuit "Circuit E"

Licence Nom Prénom Temps CN
précédent
Score sur
la course
Différence
19362TOULEMONDECamille0:41:1528313473+642
13926GODEFROYSimon0:44:5725143187+673
10758BESTELSandra0:51:1323172797+480
935TESTOUDPhilippe0:58:3933112442-869
2124VANNIERVictorine1:00:1427132378-335
13396BEAUVISAGEQuentin1:00:5020572355+298
3370GAWSEWITCHGerald1:01:0122572348+91
13740BEAUVISAGEFabienne1:06:1326732163-510
19393HAYERNicolas1:12:4143791971-2408
19782MEYMilena1:22:1610611741+680
21998GALLOISMarc1:25:00N/A1685N/A
934TESTOUDMadeleine1:25:2020441679-365
20383DUTERAGECatherine1:37:05N/A1475N/A
21988MULLERNicolasN/AN/A0N/A

  Indice de confiance du circuit (moyenne des différences entre CN et score sur la course des 3 à 10 premiers) : 873




 Circuit "Circuit F"

Licence Nom Prénom Temps CN
précédent
Score sur
la course
Différence
11311GARNIER-BARSANTIClara0:32:2613912024+633
17308BESTELArnault0:36:3823451792-553
21391WALLONMaxime0:38:29N/A1705N/A
17046WERKOFFCyprien0:40:52N/A1606N/A
17522BLANCHONAlexandre0:40:58N/A1602N/A
21066BLANCHONLaurent0:44:23N/A1479N/A
18553THORELIsabelle0:47:4418721375-497
16688PANNIERQuentin0:54:5022761197-1079
8552CLOUARDAugustin0:55:4821061176-930
21305COMBATAlexandre1:08:44N/A955N/A

  Indice de confiance du circuit (moyenne des différences entre CN et score sur la course des 3 à 10 premiers) : 849






 Retour